Location: Battersea Observatory
(44.4318°N, 76.3841°W)
Time: 21:06:57
(UTC-05:00)

Courier 1B - All Passes

Search period start: 22 January 2022 00:00
Search period end: 01 February 2022 00:00
Orbit: 962 x 1209 km, 28.3° (Epoch: 22 January)

Date Brightness Start Highest point End Pass type
(mag) Time Alt. Az. Time Alt. Az. Time Alt. Az.
22 Jan - 00:21:55 10° SW 00:26:52 19° SSW 00:31:40 10° SSE night (unlit)
22 Jan - 19:43:10 10° S 19:47:02 14° SSE 19:50:53 10° SE visible
22 Jan - 21:34:23 10° SW 21:40:07 22° S 21:45:43 10° SE visible
22 Jan - 23:27:49 10° SW 23:33:16 21° S 23:38:33 10° SE night (unlit)
23 Jan - 01:23:51 10° SW 01:26:09 12° SSW 01:28:26 10° S night (unlit)
23 Jan - 18:51:03 10° S 18:53:27 12° SSE 18:55:50 10° SE visible
23 Jan - 20:40:55 10° SW 20:46:27 21° S 20:51:55 10° SE visible
23 Jan - 22:33:52 10° SW 22:39:38 23° S 22:45:14 10° SE night (unlit)
24 Jan - 00:28:44 10° SW 00:32:38 15° SSW 00:36:27 10° S night (unlit)
24 Jan - 19:47:38 10° SSW 19:52:48 19° SSE 19:57:57 10° SE visible
24 Jan - 21:40:04 10° SW 21:45:58 23° S 21:51:45 10° SE visible
24 Jan - 23:34:15 10° SW 23:39:04 18° SSW 23:43:46 10° SSE night (unlit)
25 Jan - 18:54:36 10° SSW 18:59:10 17° SSE 19:03:44 10° SE visible
25 Jan - 20:46:23 10° SW 20:52:17 23° S 20:58:07 10° SE visible
25 Jan - 22:40:04 10° SW 22:45:27 20° SSW 22:50:43 10° SSE night (unlit)
26 Jan - 18:02:00 10° S 18:05:33 14° SSE 18:09:08 10° SE visible
26 Jan - 19:52:52 10° SW 19:58:36 22° S 20:04:21 10° SE visible
26 Jan - 21:46:05 10° SW 21:51:48 22° S 21:57:26 10° SE visible
26 Jan - 23:41:30 10° SW 23:44:48 13° SSW 23:48:03 10° S night (unlit)
27 Jan - 17:10:35 10° SSE 17:11:59 11° SSE 17:13:25 10° SE daylight
27 Jan - 18:59:30 10° SSW 19:04:56 21° SSE 19:10:24 10° SE visible
27 Jan - 20:52:14 10° SW 20:58:07 23° S 21:03:58 10° SE visible
27 Jan - 22:46:46 10° SW 22:51:13 16° SSW 22:55:36 10° SSE night (unlit)
28 Jan - 18:06:22 10° SSW 18:11:17 18° SSE 18:16:17 10° SE visible
28 Jan - 19:58:32 10° SW 20:04:26 24° S 20:10:21 10° SE visible
28 Jan - 21:52:29 10° SW 21:57:35 19° SSW 22:02:41 10° SSE visible
29 Jan - 17:13:34 10° SSW 17:17:41 16° SSE 17:21:54 10° SE daylight
29 Jan - 19:04:59 10° SW 19:10:45 23° S 19:16:36 10° SE visible
29 Jan - 20:58:25 10° SW 21:03:56 21° S 21:09:27 10° SE visible
29 Jan - 22:54:50 10° SW 22:56:54 11° SSW 22:58:58 10° S night (unlit)
30 Jan - 16:21:20 10° S 16:24:08 12° SSE 16:26:59 10° SE daylight
30 Jan - 18:11:36 10° SW 18:17:05 22° S 18:22:41 10° SE visible
30 Jan - 20:04:34 10° SW 20:10:16 23° S 20:16:02 10° SE visible
30 Jan - 21:59:33 10° SW 22:03:20 14° SSW 22:07:06 10° S visible
31 Jan - 17:18:25 10° SSW 17:23:27 20° SSE 17:28:38 10° SE daylight
31 Jan - 19:10:51 10° SW 19:16:35 23° S 19:22:26 10° SE visible
31 Jan - 21:05:05 10° SW 21:09:43 17° SSW 21:14:22 10° SSE visible
